Flag for Norfolk Island Weather past 2 weeks in Kingston, Norfolk Island

Now
66 °F

Passing clouds.


Feels Like: 66 °F
Forecast: 56 / 67 °F
Wind: 9 mph from West

Location: Norfolk Island Airport

Current Time: Sep 16, 2014 at 2:41:27 PM

Latest Report: Sep 16, 2014 at 2:00 PM


Visibility: N/A

Pressure: 30.07 "Hg

Humidity: 43%

Dew point: 43 °F

Location of KingstonLocation

Historic Weather in Kingston — Graph

°F

Kingston temperature yesterday

Maximum temperature yesterday: 64 °F (at 1:00 PM)
Minimum temperature yesterday: 55 °F (at 4:30 AM)
Average temperature yesterday: 60 °F

Past Weeks' High & Low Weather Summary

 TemperatureHumidityPressure
High68 °F (Sep 4, 12:00 PM)100% (Sep 10, 12:00 AM)30.27 "Hg (Sep 10, 12:00 AM)
Low55 °F (Sep 15, 4:30 AM)43% (Sep 13, 3:00 PM)29.65 "Hg (Sep 4, 1:30 AM)
Average62 °F74%30.03 "Hg
* Reported Sep 1 12:30 PM — Sep 16 12:30 PM, Kingston, Weather by CustomWeather, © 2014

Note: Actual official high and low records may vary slightly from our data, if they occured in-between our weather recording intervals... More about our weather records

Advertising

Kingston weather history for previous 24 hours

 ConditionsComfort  
Time TempWeatherWind HumidityBarometerVisibility
12:30 PM
Sep 16
64 °FPassing clouds.8 mph49%30.09 "HgN/A
12:00 PM64 °FPassing clouds.10 mph49%30.09 "HgN/A
11:30 AM66 °FPassing clouds.8 mph49%30.12 "HgN/A
11:00 AM66 °FPassing clouds.9 mph46%30.12 "HgN/A
10:30 AM64 °FScattered clouds.9 mph49%30.12 "HgN/A
10:00 AM64 °FPassing clouds.10 mph49%30.12 "HgN/A
9:30 AM64 °FPassing clouds.9 mph52%30.12 "HgN/A
9:00 AM64 °FPassing clouds.8 mph52%30.12 "HgN/A
8:30 AM64 °FPassing clouds.8 mph52%30.12 "HgN/A
8:00 AM63 °FPassing clouds.5 mph59%30.12 "HgN/A
7:30 AM63 °FPartly sunny.6 mph59%30.12 "HgN/A
7:00 AM61 °FBroken clouds.5 mph59%30.09 "HgN/A
6:30 AM61 °FPartly sunny.5 mph55%30.09 "HgN/A
6:00 AM59 °FPartly sunny.5 mph63%30.09 "HgN/A
5:30 AM59 °FOvercast.5 mph63%30.09 "HgN/A
5:00 AM59 °FOvercast.1 mph63%30.09 "HgN/A
4:30 AM59 °FOvercast.No wind59%30.07 "HgN/A
4:00 AM59 °FOvercast.No wind59%30.07 "HgN/A
3:30 AM59 °FOvercast.1 mph55%30.07 "HgN/A
3:00 AM59 °FPassing clouds.2 mph55%30.07 "HgN/A
2:30 AM59 °FOvercast.No wind55%30.07 "HgN/A
1:30 AM61 °FOvercast.3 mph52%30.09 "HgN/A
1:00 AM59 °FOvercast.1 mph63%30.09 "HgN/A
12:30 AM59 °FOvercast.5 mph59%30.09 "HgN/A
12:00 AM59 °FOvercast.No wind63%30.12 "HgN/A
11:30 PM
Sep 15
59 °FPassing clouds.No wind63%30.12 "HgN/A
11:00 PM59 °FPassing clouds.No wind68%30.12 "HgN/A
10:30 PM59 °FPassing clouds.No wind68%30.12 "HgN/A
10:00 PM59 °FPassing clouds.No wind68%30.12 "HgN/A
9:30 PM59 °FPassing clouds.No wind63%30.12 "HgN/A
9:00 PM59 °FPassing clouds.No wind63%30.12 "HgN/A
8:30 PM59 °FPassing clouds.No wind72%30.12 "HgN/A
7:30 PM59 °FPassing clouds.No wind63%30.09 "HgN/A
7:00 PM59 °FPassing clouds.No wind63%30.09 "HgN/A
6:30 PM59 °FPassing clouds.No wind68%30.09 "HgN/A
6:00 PM61 °FPassing clouds.No wind59%30.09 "HgN/A
5:30 PM61 °FPartly sunny.5 mph59%30.09 "HgN/A
4:30 PM63 °FPartly sunny.6 mph52%30.07 "HgN/A
4:00 PM63 °FPartly sunny.6 mph52%30.07 "HgN/A
3:30 PM63 °FOvercast.8 mph56%30.07 "HgN/A
3:00 PM63 °FPartly sunny.8 mph52%30.07 "HgN/A
2:30 PM63 °FPartly sunny.8 mph52%30.07 "HgN/A
Weather by CustomWeather, © 2014

See weather overviewHow to use our weather pages